EW9092 Weather Reports


Display with metric or nautical units.
time (UTC)temp
F
wind
direction
speed
MPH
gust
MPH
rain 1hr
in
rain 24hr
in
rain mn
in
humidity
%
barometer
mb
20260906212221 98 262 5.0 12.0 0.00 0.00 0.00 28 1012.3
20260906211946 98 266 5.0 12.0 0.00 0.00 0.00 27 1012.2
20260906211453 98 234 6.0 13.0 0.00 0.00 0.00 27 1012.2
20260906210945 98 217 5.0 13.0 0.00 0.00 0.00 28 1012.2
20260906210224 98 262 6.0 12.0 0.00 0.00 0.00 28 1012.3
20260906205725 98 293 5.0 12.0 0.00 0.00 0.00 28 1012.4
20260906205214 98 274 5.0 11.0 0.00 0.00 0.00 29 1012.4
20260906204708 97 251 6.0 12.0 0.00 0.00 0.00 29 1012.5
20260906204203 97 240 5.0 12.0 0.00 0.00 0.00 29 1012.4
20260906203653 97 188 5.0 11.0 0.00 0.00 0.00 29 1012.6
20260906203147 97 274 5.0 13.0 0.00 0.00 0.00 29 1012.8
20260906202640 97 266 6.0 13.0 0.00 0.00 0.00 29 1012.8
20260906202348 97 262 5.0 12.0 0.00 0.00 0.00 30 1012.8
20260906201625 96 217 5.0 12.0 0.00 0.00 0.00 30 1012.7
20260906201118 96 273 6.0 14.0 0.00 0.00 0.00 30 1012.8
20260906200608 97 250 5.0 14.0 0.00 0.00 0.00 30 1012.9
20260906200321 97 273 4.0 10.0 0.00 0.00 0.00 29 1012.9
20260906195557 97 253 4.0 10.0 0.00 0.00 0.00 30 1012.9
20260906195047 97 205 4.0 10.0 0.00 0.00 0.00 29 1013.1
20260906194541 96 14 4.0 10.0 0.00 0.00 0.00 29 1013.2
20260906194035 96 257 4.0 8.0 0.00 0.00 0.00 30 1013.3
20260906193524 96 265 3.0 8.0 0.00 0.00 0.00 30 1013.3
20260906193241 96 245 4.0 10.0 0.00 0.00 0.00 30 1013.4
20260906192520 96 250 4.0 10.0 0.00 0.00 0.00 30 1013.4
20260906192015 96 290 4.0 8.0 0.00 0.00 0.00 29 1013.4
20260906191516 95 264 4.0 8.0 0.00 0.00 0.00 31 1013.5
20260906191015 95 277 3.0 8.0 0.00 0.00 0.00 30 1013.6
20260906190516 95 318 3.0 8.0 0.00 0.00 0.00 32 1013.8
20260906190244 94 267 4.0 8.0 0.00 0.00 0.00 31 1013.8
20260906185516 94 269 4.0 8.0 0.00 0.00 0.00 32 1013.9
20260906185018 95 255 3.0 7.0 0.00 0.00 0.00 31 1014.0
20260906184519 94 214 3.0 7.0 0.00 0.00 0.00 32 1014.0
20260906184015 93 271 4.0 8.0 0.00 0.00 0.00 32 1014.1
20260906183517 93 248 3.0 8.0 0.00 0.00 0.00 33 1014.2
20260906183013 94 261 2.0 6.0 0.00 0.00 0.00 32 1014.4
20260906182513 93 214 3.0 6.0 0.00 0.00 0.00 33 1014.4
20260906182014 93 240 3.0 6.0 0.00 0.00 0.00 32 1014.5
20260906181508 93 161 3.0 7.0 0.00 0.00 0.00 32 1014.5
20260906181002 94 251 2.0 7.0 0.00 0.00 0.00 32 1014.6
20260906180505 94 222 2.0 6.0 0.00 0.00 0.00 32 1014.7
20260906180004 92 261 3.0 7.0 0.00 0.00 0.00 33 1014.6
20260906175503 92 214 3.0 7.0 0.00 0.00 0.00 33 1014.7
20260906175003 93 242 3.0 7.0 0.00 0.00 0.00 33 1014.7
20260906174501 92 191 3.0 6.0 0.00 0.00 0.00 33 1014.8
20260906174000 93 281 3.0 8.0 0.00 0.00 0.00 32 1014.7
20260906173501 92 238 3.0 8.0 0.00 0.00 0.00 34 1014.7
20260906173005 92 275 3.0 6.0 0.00 0.00 0.00 33 1014.7
20260906172716 92 225 3.0 7.0 0.00 0.00 0.00 34 1014.7
20260906172001 92 279 3.0 7.0 0.00 0.00 0.00 33 1014.8
20260906171502 93 231 2.0 6.0 0.00 0.00 0.00 33 1014.8
20260906171002 92 193 3.0 6.0 0.00 0.00 0.00 33 1014.7
20260906170726 92 259 3.0 5.0 0.00 0.00 0.00 34 1014.7
20260906165956 92 283 3.0 5.0 0.00 0.00 0.00 34 1014.7
20260906165449 91 283 2.0 6.0 0.00 0.00 0.00 35 1014.8
20260906164948 91 244 2.0 6.0 0.00 0.00 0.00 36 1014.8
20260906164447 90 196 2.0 4.0 0.00 0.00 0.00 36 1014.8
20260906163946 90 250 1.0 4.0 0.00 0.00 0.00 35 1014.7
20260906163447 90 161 2.0 5.0 0.00 0.00 0.00 36 1014.8
20260906162948 90 281 2.0 5.0 0.00 0.00 0.00 36 1014.8
20260906162445 91 281 2.0 5.0 0.00 0.00 0.00 36 1014.8
20260906161946 89 212 2.0 5.0 0.00 0.00 0.00 36 1014.9
20260906161445 89 250 3.0 6.0 0.00 0.00 0.00 35 1014.9
20260906160946 90 233 3.0 8.0 0.00 0.00 0.00 35 1014.9
20260906160441 91 149 2.0 8.0 0.00 0.00 0.00 34 1014.9
20260906155940 92 245 1.0 5.0 0.00 0.00 0.00 33 1015.0
20260906155700 91 127 1.0 4.0 0.00 0.00 0.00 34 1015.1
20260906155214 91 112 2.0 4.0 0.00 0.00 0.00 34 1015.1
20260906154442 90 269 2.0 4.0 0.00 0.00 0.00 36 1015.1
20260906153940 89 221 1.0 4.0 0.00 0.00 0.00 36 1015.1
20260906153440 89 221 0.0 3.0 0.00 0.00 0.00 37 1015.1
20260906152942 88 241 1.0 3.0 0.00 0.00 0.00 38 1015.1
20260906152440 87 139 1.0 3.0 0.00 0.00 0.00 39 1015.2
20260906151940 85 147 0.0 2.0 0.00 0.00 0.00 41 1015.2
20260906151440 84 131 0.0 1.0 0.00 0.00 0.00 42 1015.3
20260906151203 84 131 0.0 3.0 0.00 0.00 0.00 43 1015.2
20260906150440 83 151 1.0 5.0 0.00 0.00 0.00 44 1015.3
20260906145941 83 222 1.0 5.0 0.00 0.00 0.00 44 1015.3
20260906145440 83 233 1.0 4.0 0.00 0.00 0.00 45 1015.3
20260906144942 82 122 1.0 4.0 0.00 0.00 0.00 48 1015.2
20260906144436 82 157 2.0 4.0 0.00 0.00 0.00 50 1015.3
20260906143938 81 136 1.0 4.0 0.00 0.00 0.00 48 1015.3
20260906143438 81 158 1.0 4.0 0.00 0.00 0.00 48 1015.3
20260906142937 80 145 1.0 4.0 0.00 0.00 0.00 49 1015.3
20260906142436 80 127 1.0 2.0 0.00 0.00 0.00 51 1015.3
20260906141938 80 168 1.0 4.0 0.00 0.00 0.00 51 1015.3
20260906141437 79 165 1.0 5.0 0.00 0.00 0.00 51 1015.2
20260906140938 79 134 1.0 5.0 0.00 0.00 0.00 51 1015.1
20260906140654 78 136 0.0 3.0 0.00 0.00 0.00 52 1015.0
20260906135935 78 235 0.0 0.0 0.00 0.00 0.00 52 1015.0
20260906135433 78 235 0.0 0.0 0.00 0.00 0.00 51 1014.9
20260906135022 78 235 0.0 0.0 0.00 0.00 0.00 51 1014.8
20260906133930 78 235 0.0 0.0 0.00 0.00 0.00 50 1014.8
20260906133428 78 235 0.0 0.0 0.00 0.00 0.00 50 1014.7
20260906132926 78 235 0.0 1.0 0.00 0.00 0.00 51 1014.7
20260906132426 78 235 0.0 2.0 0.00 0.00 0.00 50 1014.6
20260906131922 78 235 0.0 2.0 0.00 0.00 0.00 50 1014.5
20260906131910 78 4 0.0 0.0 0.00 0.00 0.00 51 1014.6
20260906130918 78 4 0.0 0.0 0.00 0.00 0.00 50 1014.6
20260906130416 78 4 0.0 0.0 0.00 0.00 0.00 51 1014.6
20260906125914 78 4 0.0 0.0 0.00 0.00 0.00 50 1014.6
20260906124916 78 4 0.0 0.0 0.00 0.00 0.00 49 1014.6
20260906124412 78 4 0.0 1.0 0.00 0.00 0.00 49 1014.5
20260906123911 78 141 0.0 3.0 0.00 0.00 0.00 49 1014.5
20260906123410 78 158 1.0 3.0 0.00 0.00 0.00 49 1014.5
20260906122912 78 129 1.0 4.0 0.00 0.00 0.00 49 1014.4
20260906122409 78 159 2.0 6.0 0.00 0.00 0.00 49 1014.4
20260906121908 78 181 2.0 6.0 0.00 0.00 0.00 49 1014.2
20260906121406 78 141 2.0 4.0 0.00 0.00 0.00 49 1014.4
20260906120907 78 154 2.0 5.0 0.00 0.00 0.00 49 1014.4
20260906120406 79 223 2.0 5.0 0.00 0.00 0.00 49 1014.4
20260906115904 79 131 2.0 5.0 0.00 0.00 0.00 49 1014.4
20260906115409 79 146 2.0 5.0 0.00 0.00 0.00 48 1014.2
20260906114905 79 145 2.0 7.0 0.00 0.00 0.00 48 1014.1
20260906114407 79 60 2.0 7.0 0.00 0.00 0.00 48 1014.1
20260906113906 79 153 2.0 5.0 0.00 0.00 0.00 48 1014.1
20260906113621 79 136 2.0 4.0 0.00 0.00 0.00 48 1014.0
20260906112854 79 140 2.0 4.0 0.00 0.00 0.00 48 1014.0
20260906112705 79 155 2.0 4.0 0.00 0.00 0.00 48 1013.9
20260906111351 79 122 2.0 4.0 0.00 0.00 0.00 48 1013.9
20260906110851 79 134 2.0 4.0 0.00 0.00 0.00 48 1013.8
20260906110349 79 136 2.0 4.0 0.00 0.00 0.00 48 1013.8
20260906105848 79 127 1.0 4.0 0.00 0.00 0.00 48 1013.8
20260906105348 79 127 1.0 3.0 0.00 0.00 0.00 48 1013.8
20260906104849 79 144 2.0 4.0 0.00 0.00 0.00 48 1013.8
20260906104348 79 148 2.0 4.0 0.00 0.00 0.00 49 1013.8
20260906103848 79 141 1.0 3.0 0.00 0.00 0.00 49 1013.8
20260906103616 79 139 1.0 3.0 0.00 0.00 0.00 49 1013.8
20260906102849 79 140 1.0 2.0 0.00 0.00 0.00 49 1013.8
20260906102607 79 162 0.0 2.0 0.00 0.00 0.00 49 1013.8
20260906101843 79 176 0.0 2.0 0.00 0.00 0.00 49 1013.8
20260906101337 79 134 1.0 3.0 0.00 0.00 0.00 49 1013.8
20260906100831 79 134 1.0 3.0 0.00 0.00 0.00 49 1013.7
20260906100317 79 139 1.0 3.0 0.00 0.00 0.00 50 1013.7
20260906095811 79 136 1.0 4.0 0.00 0.00 0.00 50 1013.7
20260906095311 79 140 1.0 4.0 0.00 0.00 0.00 50 1013.6
20260906094808 79 131 0.0 1.0 0.00 0.00 0.00 50 1013.7
20260906094530 80 157 0.0 1.0 0.00 0.00 0.00 50 1013.6
20260906093806 80 148 1.0 2.0 0.00 0.00 0.00 50 1013.6
20260906093301 80 141 1.0 2.0 0.00 0.00 0.00 49 1013.6
20260906092803 80 177 0.0 2.0 0.00 0.00 0.00 50 1013.5
20260906092757 80 150 0.0 2.0 0.00 0.00 0.00 49 1013.5
20260906091802 80 129 1.0 3.0 0.00 0.00 0.00 49 1013.6
20260906091258 80 170 1.0 3.0 0.00 0.00 0.00 49 1013.6
20260906090757 80 129 1.0 3.0 0.00 0.00 0.00 49 1013.6
20260906090255 80 167 1.0 2.0 0.00 0.00 0.00 49 1013.6
20260906090016 81 162 1.0 3.0 0.00 0.00 0.00 49 1013.6
20260906085516 81 129 1.0 3.0 0.00 0.00 0.00 49 1013.6
20260906084752 81 148 2.0 4.0 0.00 0.00 0.00 48 1013.6
20260906084252 81 135 2.0 4.0 0.00 0.00 0.00 48 1013.6
20260906083753 81 161 1.0 4.0 0.00 0.00 0.00 48 1013.7
20260906083245 81 185 1.0 3.0 0.00 0.00 0.00 48 1013.7
20260906082744 82 159 1.0 3.0 0.00 0.00 0.00 48 1013.7
20260906082505 82 129 1.0 4.0 0.00 0.00 0.00 48 1013.6
20260906081746 82 175 2.0 4.0 0.00 0.00 0.00 47 1013.7
20260906081244 82 138 2.0 5.0 0.00 0.00 0.00 47 1013.7
20260906081005 82 148 3.0 7.0 0.00 0.00 0.00 47 1013.8
20260906080245 82 141 3.0 7.0 0.00 0.00 0.00 47 1013.8
20260906080006 82 112 3.0 6.0 0.00 0.00 0.00 47 1013.8
20260906075243 82 128 2.0 6.0 0.00 0.00 0.00 48 1013.9
20260906075002 82 138 2.0 4.0 0.00 0.00 0.00 47 1014.0
20260906074244 82 143 1.0 3.0 0.00 0.00 0.00 48 1014.1
20260906074233 82 153 1.0 4.0 0.00 0.00 0.00 47 1014.1
20260906073244 82 146 2.0 4.0 0.00 0.00 0.00 47 1014.0
20260906072744 82 139 2.0 5.0 0.00 0.00 0.00 47 1014.0
20260906072735 82 141 1.0 5.0 0.00 0.00 0.00 47 1014.0
20260906071740 82 133 0.0 3.0 0.00 0.00 0.00 47 1014.1
20260906071233 82 134 0.0 2.0 0.00 0.00 0.00 47 1014.1
20260906070733 82 115 0.0 2.0 0.00 0.00 0.00 47 1014.1
20260906070230 82 123 0.0 2.0 0.00 0.00 0.00 47 1014.1
20260906065728 82 136 0.0 2.0 0.00 0.00 0.00 47 1014.2
20260906065226 82 104 0.0 2.0 0.00 0.00 0.00 47 1014.1
20260906064727 82 138 0.0 1.0 0.00 0.00 0.00 47 1014.1
20260906064443 82 146 0.0 2.0 0.00 0.00 0.00 47 1014.1
20260906063724 82 146 0.0 2.0 0.00 0.00 0.00 47 1014.0
20260906063224 82 58 0.0 0.0 0.00 0.00 0.00 47 1014.1
20260906062721 82 58 0.0 0.0 0.00 0.00 0.00 47 1014.2
20260906062221 82 58 0.0 0.0 0.00 0.00 0.00 47 1014.1
20260906061719 82 58 0.0 0.0 0.00 0.00 0.00 48 1014.2
20260906061218 83 58 0.0 0.0 0.00 0.00 0.00 47 1014.1
20260906060714 83 58 0.0 0.0 0.00 0.00 0.00 47 1014.1
20260906060214 82 58 0.0 0.0 0.00 0.00 0.00 47 1014.2
20260906055709 82 58 0.0 0.0 0.00 0.00 0.00 48 1014.2
20260906055211 82 58 0.0 0.0 0.00 0.00 0.00 47 1014.2
20260906054927 83 58 0.0 0.0 0.00 0.00 0.00 46 1014.1
20260906054155 83 58 0.0 0.0 0.00 0.00 0.00 46 1014.1
20260906054128 83 58 0.0 0.0 0.00 0.00 0.00 45 1014.2
20260906053144 83 58 0.0 0.0 0.00 0.00 0.00 45 1014.2
20260906052643 84 58 0.0 0.0 0.00 0.00 0.00 45 1014.1
20260906052140 84 58 0.0 0.0 0.00 0.00 0.00 45 1014.1
20260906051637 84 58 0.0 0.0 0.00 0.00 0.00 44 1014.1
20260906051137 84 58 0.0 0.0 0.00 0.00 0.00 44 1014.2
20260906050640 84 58 0.0 0.0 0.00 0.00 0.00 43 1014.2
20260906050406 85 58 0.0 0.0 0.00 0.00 0.00 43 1014.2
20260906050127 85 58 0.0 0.0 0.00 0.00 0.00 43 1014.2
20260906045359 85 11 0.0 3.0 0.00 0.00 0.00 42 1014.2
20260906044637 85 11 0.0 3.0 0.00 0.00 0.00 42 1014.2
20260906044134 86 17 0.0 0.0 0.00 0.00 0.00 41 1014.2
20260906043635 86 17 0.0 3.0 0.00 0.00 0.00 41 1014.2
20260906043402 87 17 0.0 3.0 0.00 0.00 0.00 40 1014.2
20260906042634 87 293 0.0 1.0 0.00 0.00 0.00 40 1014.1
20260906042135 87 248 0.0 1.0 0.00 0.00 0.00 39 1014.1
20260906041634 87 248 0.0 1.0 0.00 0.00 0.00 39 1014.2
20260906041134 88 248 0.0 2.0 0.00 0.00 0.00 38 1014.1
20260906040633 88 248 1.0 3.0 0.00 0.00 0.00 38 1014.1
20260906040135 88 253 1.0 3.0 0.00 0.00 0.00 38 1014.2
20260906035635 88 246 1.0 5.0 0.00 0.00 0.00 38 1014.2
20260906035135 88 263 1.0 5.0 0.00 0.00 0.00 37 1014.1
20260906034634 89 274 1.0 3.0 0.00 0.00 0.00 37 1014.1
20260906034133 89 260 1.0 4.0 0.00 0.00 0.00 37 1014.0
20260906033635 89 269 2.0 6.0 0.00 0.00 0.00 37 1014.0
20260906033133 89 248 2.0 6.0 0.00 0.00 0.00 37 1013.9
20260906032633 89 274 2.0 6.0 0.00 0.00 0.00 36 1013.8
20260906032135 89 251 2.0 6.0 0.00 0.00 0.00 36 1013.8
20260906031635 89 267 2.0 6.0 0.00 0.00 0.00 36 1013.8
20260906031134 89 259 1.0 5.0 0.00 0.00 0.00 36 1013.7
20260906030852 90 269 1.0 4.0 0.00 0.00 0.00 36 1013.6
20260906030134 90 243 2.0 5.0 0.00 0.00 0.00 36 1013.6
20260906025634 90 268 1.0 5.0 0.00 0.00 0.00 36 1013.5
20260906025134 90 308 1.0 4.0 0.00 0.00 0.00 36 1013.4
20260906024633 90 269 1.0 4.0 0.00 0.00 0.00 35 1013.4
20260906024407 90 262 2.0 6.0 0.00 0.00 0.00 35 1013.4
20260906023633 90 259 2.0 6.0 0.00 0.00 0.00 35 1013.4
20260906023358 90 273 3.0 6.0 0.00 0.00 0.00 35 1013.4
20260906022635 91 250 3.0 8.0 0.00 0.00 0.00 35 1013.2
20260906022134 91 288 3.0 8.0 0.00 0.00 0.00 35 1013.2
20260906021633 91 276 3.0 8.0 0.00 0.00 0.00 35 1013.2
20260906021132 91 278 3.0 8.0 0.00 0.00 0.00 35 1013.2
20260906020632 91 269 4.0 9.0 0.00 0.00 0.00 35 1013.2
20260906020129 91 269 5.0 10.0 0.00 0.00 0.00 34 1013.2
20260906015631 91 290 5.0 10.0 0.00 0.00 0.00 34 1013.2
20260906015127 91 236 5.0 10.0 0.00 0.00 0.00 34 1013.1
20260906014628 92 224 5.0 13.0 0.00 0.00 0.00 34 1013.1
20260906014348 92 240 4.0 13.0 0.00 0.00 0.00 34 1013.1
20260906013622 92 281 3.0 10.0 0.00 0.00 0.00 33 1013.1
20260906013121 92 283 4.0 10.0 0.00 0.00 0.00 33 1012.9
20260906012625 92 281 5.0 10.0 0.00 0.00 0.00 33 1012.9
20260906012223 92 275 5.0 10.0 0.00 0.00 0.00 33 1013.1
20260906011121 93 293 6.0 12.0 0.00 0.00 0.00 33 1013.1
20260906010621 93 276 6.0 12.0 0.00 0.00 0.00 33 1013.1
20260906010346 93 255 6.0 11.0 0.00 0.00 0.00 33 1013.1
20260906005623 94 248 6.0 14.0 0.00 0.00 0.00 32 1013.1
20260906005615 94 291 5.0 14.0 0.00 0.00 0.00 32 1012.9
20260906004620 94 263 5.0 10.0 0.00 0.00 0.00 32 1012.9
20260906004122 95 311 6.0 12.0 0.00 0.00 0.00 32 1013.1
20260906003847 95 292 7.0 13.0 0.00 0.00 0.00 31 1013.1
20260906003117 95 269 6.0 13.0 0.00 0.00 0.00 31 1013.1
20260906002837 95 252 5.0 13.0 0.00 0.00 0.00 31 1013.2
20260906002113 95 297 5.0 12.0 0.00 0.00 0.00 31 1013.1
20260906001615 95 235 5.0 11.0 0.00 0.00 0.00 31 1012.9
20260906001332 96 273 6.0 11.0 0.00 0.00 0.00 31 1013.1
20260906000614 95 273 7.0 13.0 0.00 0.00 0.00 31 1012.9
20260906000341 95 301 6.0 13.0 0.00 0.00 0.00 31 1012.9
20260905235615 96 259 5.0 12.0 0.00 0.00 0.00 30 1012.9
20260905235113 96 265 5.0 12.0 0.00 0.00 0.00 30 1012.9
20260905234838 96 280 5.0 11.0 0.00 0.00 0.00 30 1012.9
20260905234333 96 250 5.0 11.0 0.00 0.00 0.00 30 1012.9
20260905233610 96 308 5.0 12.0 0.00 0.00 0.00 30 1012.8
20260905233344 96 271 7.0 13.0 0.00 0.00 0.00 30 1012.9
20260905233054 96 271 6.0 13.0 0.00 0.00 0.00 30 1012.9
20260905232109 96 243 5.0 9.0 0.00 0.00 0.00 29 1013.1
20260905231612 96 280 5.0 9.0 0.00 0.00 0.00 30 1012.9
20260905231336 96 262 6.0 13.0 0.00 0.00 0.00 29 1012.9
20260905230557 96 260 5.0 13.0 0.00 0.00 0.00 29 1013.1
20260905230050 96 275 5.0 11.0 0.00 0.00 0.00 29 1013.1
20260905225543 96 237 4.0 11.0 0.00 0.00 0.00 29 1013.2
20260905225033 96 274 5.0 11.0 0.00 0.00 0.00 29 1013.2
20260905224525 96 266 6.0 11.0 0.00 0.00 0.00 29 1013.2
20260905224021 97 276 5.0 10.0 0.00 0.00 0.00 29 1013.2
20260905223510 96 225 5.0 12.0 0.00 0.00 0.00 29 1013.2
20260905223006 96 259 5.0 12.0 0.00 0.00 0.00 29 1013.3
20260905222459 96 290 6.0 14.0 0.00 0.00 0.00 29 1013.3
20260905221949 96 278 5.0 14.0 0.00 0.00 0.00 30 1013.3
20260905221442 97 274 4.0 13.0 0.00 0.00 0.00 29 1013.4
20260905220938 97 236 6.0 13.0 0.00 0.00 0.00 29 1013.5
20260905220427 96 295 6.0 13.0 0.00 0.00 0.00 30 1013.5
20260905220141 96 280 5.0 10.0 0.00 0.00 0.00 30 1013.5
20260905215415 97 271 5.0 15.0 0.00 0.00 0.00 30 1013.6
20260905215124 98 207 4.0 15.0 0.00 0.00 0.00 29 1013.7
20260905214359 98 300 4.0 8.0 0.00 0.00 0.00 29 1013.7
20260905213853 98 242 3.0 8.0 0.00 0.00 0.00 29 1013.8
20260905213343 97 259 4.0 8.0 0.00 0.00 0.00 29 1013.8
20260905212841 97 188 4.0 8.0 0.00 0.00 0.00 29 1013.9